Vorticity
nan nan nan nan nan nan nan nan nan nan nan nan nan nan nan nan nan nan nan nan nan nan nan nan nan nan nan nan nan nan nan nan nan nan nan nan nan nan nan nan nan nan nan nan nan nan nan nan nan nan nan nan nan nan nan nan nan nan nan nan nan nan nan nan nan nan nan nan nan nan nan nan nan nan nan nan nan nan nan nan nan nan nan nan nan nan nan nan nan nan nan nan nan nan nan nan nan nan nan nan nan nan nan
nan 8 9 9 7 5 3 4 5 6 8 7 6 6 7 8 8 8 8 7 6 6 6 5 5 4 4 3 2 3 3 3 4 5 4 3 1 0 -0 -0 1 2 7 14 20 20 11 3 4 5 5 5 5 5 5 4 4 5 6 7 7 10 14 10 6 5 6 6 6 6 5 5 5 5 5 6 6 6 5 5 5 5 6 5 5 5 4 4 5 5 5 5 6 6 6 6 5 5 5 5 5 5 nan
nan 8 9 8 6 4 3 4 5 7 8 7 6 6 7 8 9 11 10 7 7 6 5 5 5 4 4 3 3 3 4 4 5 5 4 2 1 0 -0 0 1 3 8 16 21 19 10 4 2 4 5 5 5 5 5 4 4 5 7 8 9 12 17 9 6 5 6 6 6 6 6 5 5 5 6 6 6 6 5 5 5 5 5 5 4 4 4 5 5 5 5 6 6 6 7 6 6 6 5 5 5 5 nan
nan 8 8 6 4 3 3 5 6 7 8 7 6 6 7 8 9 12 11 8 7 6 5 5 4 4 4 4 4 4 5 6 6 5 3 1 0 0 -0 1 2 4 9 16 20 19 10 3 1 3 5 6 6 5 5 5 6 6 7 8 11 15 15 8 5 6 6 6 6 6 6 5 6 6 6 6 6 5 5 5 6 6 5 4 4 4 4 5 5 5 6 6 6 6 7 7 6 6 6 5 5 5 nan
nan 7 7 5 4 3 4 7 7 8 8 7 7 7 8 8 9 11 11 8 6 5 5 5 5 5 5 5 5 5 6 7 6 4 2 1 0 0 1 1 2 4 10 16 19 16 14 8 1 3 6 6 5 5 5 5 6 6 6 8 12 14 10 5 5 6 6 6 6 6 5 5 6 6 6 6 6 5 5 6 6 6 5 4 4 4 4 5 5 5 6 6 5 5 6 6 6 6 6 6 5 5 nan
nan 8 7 5 4 3 4 7 8 8 8 8 8 8 8 8 9 10 10 8 6 5 4 5 5 5 5 5 6 6 6 7 6 4 1 0 -0 0 1 2 3 5 10 16 18 15 12 7 4 6 7 6 5 5 5 6 6 6 6 9 13 14 8 5 5 6 6 6 6 5 5 5 5 5 6 6 6 5 5 6 6 6 5 4 4 4 4 5 5 5 6 6 5 5 5 5 5 5 5 5 5 5 nan
nan 8 8 6 4 2 4 7 8 8 8 8 10 9 8 7 7 8 9 7 5 4 4 4 5 5 5 6 7 7 7 6 5 3 1 0 0 0 1 2 3 5 9 15 17 14 10 6 7 8 8 6 6 6 6 7 7 7 7 11 14 12 6 5 6 6 6 6 5 5 5 5 5 5 5 6 5 5 6 6 6 6 5 4 4 4 4 4 5 5 6 6 6 5 5 5 5 5 5 5 5 5 nan
nan 8 8 7 4 2 5 8 9 9 7 8 9 10 8 6 6 6 7 7 5 5 4 4 5 5 6 6 7 7 7 6 3 2 0 0 0 1 2 2 3 5 9 14 17 15 10 6 7 8 7 6 7 7 8 7 7 7 8 11 12 9 6 5 6 6 5 5 5 5 4 5 5 5 5 5 5 5 6 7 7 6 5 4 4 4 4 4 4 5 5 6 6 6 5 5 5 4 4 5 5 5 nan
nan 9 9 7 4 3 5 8 9 9 7 7 8 8 7 5 5 5 6 6 6 5 5 5 5 6 6 7 7 7 6 4 2 1 0 0 1 1 2 3 3 5 8 13 15 14 9 4 6 7 7 8 8 8 8 6 6 6 7 11 12 10 7 6 6 6 5 5 4 4 4 4 5 5 5 5 5 5 6 7 7 6 5 4 4 4 4 4 4 4 4 5 5 5 5 5 5 5 5 5 5 5 nan
nan 9 9 7 5 3 6 9 10 10 7 5 6 6 5 4 4 5 6 7 6 6 6 6 6 6 6 7 7 7 6 3 1 1 0 0 1 1 2 3 3 5 8 11 13 13 8 5 6 7 8 8 8 7 5 5 6 6 8 13 13 10 7 6 6 6 5 5 4 4 4 4 4 4 4 4 5 5 5 6 7 6 6 5 4 4 4 4 4 4 4 4 5 5 5 5 5 5 5 5 5 4 nan
nan 10 10 6 3 2 5 9 10 11 7 4 5 4 3 3 4 5 6 7 7 6 6 6 6 7 7 7 7 6 5 3 1 1 0 1 1 2 2 3 3 4 6 9 10 9 7 7 7 7 8 8 7 5 3 4 5 5 9 15 12 8 6 6 6 6 5 5 5 4 4 4 4 4 4 4 4 5 5 5 6 6 6 6 5 5 4 4 4 4 4 4 4 5 5 4 4 4 5 5 5 5 nan
nan 11 10 6 3 2 4 8 10 11 7 4 4 3 3 4 5 5 6 6 6 6 6 7 7 7 8 7 7 6 4 3 2 1 1 1 1 2 2 3 3 4 6 7 6 5 4 6 7 8 8 7 5 3 3 4 5 5 10 16 11 6 6 6 6 6 5 5 5 5 4 4 4 4 4 4 4 5 5 5 5 5 5 6 6 5 5 4 4 4 4 4 4 4 4 4 4 4 5 5 5 5 nan
nan 12 9 5 3 2 3 6 9 10 7 4 4 4 5 7 7 6 5 5 5 6 6 7 7 8 8 7 7 6 4 3 2 1 1 1 1 2 2 2 3 5 6 5 2 0 2 5 7 8 8 6 5 4 5 5 6 8 14 15 8 6 5 6 6 6 5 5 5 5 4 4 4 4 4 4 4 4 5 5 5 5 5 5 5 5 5 5 5 5 4 4 4 4 5 5 5 5 5 5 5 5 nan
nan 9 9 7 6 4 3 5 7 9 8 6 4 4 7 9 9 7 5 4 4 5 6 6 7 7 7 7 6 6 5 3 3 2 2 1 1 2 2 3 4 5 6 3 1 0 4 7 8 8 7 6 6 6 6 4 6 11 17 11 7 5 5 5 6 6 5 5 5 5 5 4 4 4 4 4 4 4 4 5 5 5 5 5 5 5 5 5 5 5 5 5 5 5 5 5 5 5 5 5 5 5 nan
nan 6 9 10 10 7 4 5 7 9 9 7 6 5 7 9 8 7 5 4 4 4 5 6 6 7 7 6 6 5 5 4 3 2 2 2 2 2 2 3 4 4 5 4 4 6 7 7 8 8 8 6 6 6 5 5 8 15 16 7 5 5 5 5 5 5 5 5 5 5 5 5 5 4 4 4 4 4 4 4 5 5 5 5 5 5 5 5 5 5 5 5 5 6 6 6 6 6 6 6 5 5 nan
nan 5 9 12 12 9 5 4 6 9 11 10 8 6 6 7 7 6 5 4 4 4 5 5 5 6 6 6 5 3 1 2 2 2 2 2 2 2 3 4 4 4 4 6 8 9 8 7 7 8 8 7 6 6 5 7 11 16 13 5 4 4 4 5 5 5 5 5 5 6 6 6 5 5 4 4 4 4 4 4 4 5 5 5 5 5 5 5 5 5 6 6 6 6 6 5 6 6 6 6 5 5 nan
nan 6 9 12 13 10 5 4 6 8 10 11 10 8 6 6 6 6 4 4 4 4 4 4 5 5 5 4 2 -2 -3 2 2 2 2 2 2 3 3 3 3 4 5 7 9 8 7 7 7 8 9 7 7 7 6 8 13 15 10 4 4 4 4 4 4 5 5 5 5 5 6 6 5 5 5 4 4 4 4 4 4 4 4 5 5 5 5 5 6 6 6 6 6 6 6 5 5 5 6 6 5 5 nan
nan 7 9 12 13 10 6 4 5 6 8 10 10 10 9 8 6 5 4 5 4 4 4 4 5 5 4 1 -3 -4 -0 4 4 4 3 3 3 3 3 2 3 4 6 7 8 8 8 7 7 8 9 7 6 7 7 9 15 14 7 3 3 4 3 4 4 5 4 4 5 5 5 5 6 5 5 5 5 4 4 4 4 4 4 4 4 4 5 5 5 5 6 6 6 6 6 5 5 5 5 5 5 5 nan
nan 6 8 10 11 10 8 6 5 4 4 6 7 11 12 11 8 6 6 4 3 4 5 5 5 3 2 -3 -5 -2 4 6 6 5 5 4 4 4 3 3 4 5 7 7 7 8 8 7 7 8 8 8 7 7 8 11 14 12 6 4 3 3 3 3 4 4 4 4 4 4 5 5 5 5 5 5 5 5 5 4 4 4 4 4 4 4 4 5 5 5 5 6 6 6 6 5 5 5 5 5 5 5 nan
nan 6 7 7 8 10 10 8 5 4 3 2 4 10 13 12 9 9 8 4 3 3 5 5 3 0 -3 -5 -2 2 5 6 6 6 6 5 4 4 4 5 6 6 7 7 7 7 7 7 7 7 7 8 8 7 8 11 14 11 6 3 3 3 3 3 3 4 4 4 4 4 4 5 5 5 5 5 5 5 5 5 4 4 4 4 4 4 4 4 5 5 5 5 6 6 6 6 5 5 5 5 5 5 nan
nan 6 7 6 6 7 9 10 9 6 4 1 -1 4 11 14 13 13 10 4 4 4 3 -0 -3 -2 -2 0 3 4 5 5 6 6 6 6 5 5 6 6 6 7 7 7 7 7 7 7 8 8 7 8 8 9 9 12 14 10 5 3 3 3 3 3 3 3 4 4 4 4 4 4 4 5 5 5 5 5 5 5 5 4 4 4 4 4 4 4 5 5 5 5 5 5 5 5 5 5 5 5 5 5 nan
nan 7 7 6 5 4 9 14 14 10 9 5 -4 -1 8 13 14 14 9 7 8 7 1 -3 -2 2 4 5 5 4 4 5 5 5 5 5 6 6 6 6 7 7 7 7 7 7 7 8 8 9 8 7 8 10 13 15 12 8 4 4 3 3 3 3 3 3 3 4 4 4 3 3 4 4 4 4 4 4 5 5 5 4 4 4 3 4 4 4 4 4 5 5 5 5 5 5 5 5 5 5 5 5 nan
nan 7 7 5 4 3 8 15 15 12 11 8 -1 0 6 9 9 9 8 10 11 10 6 2 4 6 6 6 5 5 5 6 6 5 5 5 5 6 6 6 6 6 6 6 7 7 8 8 9 10 9 8 8 10 15 17 11 8 5 4 3 3 3 3 3 3 4 4 4 3 3 3 3 3 4 4 4 4 4 4 4 4 4 4 4 4 4 4 4 4 4 4 4 5 5 5 5 5 5 5 5 4 nan
nan 7 6 5 5 4 8 13 13 11 10 8 3 3 5 7 7 7 7 9 10 10 9 6 5 5 7 7 6 6 6 6 6 6 5 5 5 5 5 5 6 6 6 6 7 7 7 8 9 10 10 8 8 10 14 16 13 9 5 4 4 3 3 3 3 4 4 4 4 4 3 3 3 3 3 4 4 4 4 4 4 4 4 4 4 4 4 4 4 4 4 4 4 5 5 5 5 5 5 5 5 5 nan
nan 6 6 6 5 5 7 10 10 9 9 7 6 5 6 6 6 6 7 7 8 9 8 6 5 6 7 6 6 6 6 7 6 6 6 7 6 5 5 5 5 6 6 6 6 7 8 7 8 10 11 9 9 10 14 16 14 10 7 6 5 4 3 3 4 4 5 5 4 3 3 3 3 3 3 3 4 4 4 4 4 4 4 4 4 4 4 4 4 4 4 4 4 4 5 5 5 5 5 5 5 5 nan
nan 7 6 6 6 5 7 9 9 8 8 7 7 7 6 5 5 6 7 7 7 8 7 7 6 7 7 6 5 5 6 7 7 6 6 8 7 6 5 5 5 5 5 6 6 7 8 7 8 10 11 9 8 10 14 17 14 10 7 7 6 5 4 4 4 4 5 4 4 3 3 4 3 3 3 3 4 4 4 4 4 4 4 4 4 4 4 4 4 4 4 4 4 4 5 5 5 5 5 5 5 5 nan
nan 7 7 6 6 5 6 8 8 7 7 7 8 8 7 5 5 6 6 6 7 7 7 7 7 6 6 6 5 4 5 7 8 7 7 7 8 7 6 5 5 5 5 5 6 7 9 8 8 9 10 9 8 8 15 18 13 9 7 8 8 7 6 5 5 5 5 5 4 4 4 4 3 3 3 3 3 4 4 4 4 4 4 4 4 4 4 4 4 4 4 4 4 4 4 4 5 5 5 5 5 5 nan
nan 7 7 7 6 6 6 6 7 7 7 7 7 8 7 6 5 5 5 6 6 7 7 6 6 6 6 6 6 5 5 7 8 8 7 7 7 8 7 6 5 5 6 5 5 6 9 9 8 9 10 8 7 7 12 15 13 9 7 7 8 9 8 6 5 6 6 5 5 4 4 4 3 3 3 3 3 3 4 4 4 4 4 3 4 4 4 4 4 3 3 4 4 4 4 4 5 5 5 5 5 5 nan
nan 7 8 7 7 6 5 5 6 6 6 7 7 7 6 6 6 5 5 6 6 7 7 7 6 6 6 6 6 6 5 7 8 7 7 7 7 7 8 7 6 6 6 6 6 6 8 9 8 9 9 7 6 6 9 13 13 9 6 6 7 9 9 8 6 6 6 5 5 5 5 4 4 3 3 3 3 3 4 4 4 4 4 4 3 3 4 4 4 3 3 4 4 4 4 4 5 5 5 5 5 5 nan
nan 7 8 8 8 7 5 4 6 6 7 7 7 6 5 6 7 7 6 5 6 6 7 7 6 7 7 6 6 6 6 7 7 7 8 8 7 7 7 6 6 6 6 7 7 8 8 10 8 8 8 7 6 6 8 12 14 11 6 5 6 8 10 9 7 6 6 6 5 5 5 4 4 4 4 4 4 4 4 4 4 4 4 4 3 3 4 4 4 4 3 3 4 3 4 4 4 5 5 5 5 5 nan
nan 7 7 8 8 7 6 5 5 6 7 7 7 7 6 6 8 8 7 5 6 6 6 6 6 6 6 6 6 6 8 8 8 8 8 9 8 8 7 6 6 6 6 7 8 8 9 11 9 7 7 8 7 6 7 10 14 13 8 5 6 7 9 9 8 8 7 6 5 5 5 5 4 4 4 4 4 4 4 4 4 4 4 4 3 4 4 4 4 4 4 3 3 3 3 4 4 4 5 5 5 5 nan
nan 7 7 7 7 7 6 6 5 5 6 7 8 7 6 7 8 8 7 6 6 7 7 6 6 6 7 6 6 7 9 9 8 8 9 10 11 11 9 8 6 6 6 6 7 7 7 10 10 8 8 8 7 6 7 8 11 15 13 8 6 6 7 8 8 9 8 6 5 5 5 5 4 5 5 5 5 4 4 4 4 4 4 4 3 4 4 4 4 4 4 3 3 3 3 3 4 4 5 5 5 5 nan
nan 7 7 8 8 6 6 6 5 5 6 7 7 7 7 6 7 8 7 7 8 8 8 7 7 7 7 6 6 6 8 10 9 9 9 10 12 12 13 11 9 7 7 7 7 7 6 9 10 9 9 9 6 5 6 7 9 12 16 14 10 7 7 7 8 9 9 8 6 5 4 4 5 5 5 5 5 5 5 4 4 4 4 4 4 4 4 4 4 4 4 4 3 3 3 3 4 4 4 5 5 5 nan
nan 6 7 8 8 7 6 6 5 5 6 7 8 8 8 7 6 7 7 8 8 8 8 8 8 8 8 8 6 5 6 9 11 11 10 9 11 12 13 12 10 9 9 9 8 7 7 8 9 9 10 9 7 5 5 6 7 9 14 16 13 11 8 6 6 8 9 9 8 6 5 5 5 5 5 5 5 5 5 5 4 4 4 4 4 4 4 4 4 4 4 4 4 3 3 3 4 4 4 4 5 5 nan
nan 6 7 8 7 7 6 6 6 6 7 8 9 10 9 7 6 6 7 7 7 6 7 8 8 8 8 9 7 5 4 8 10 11 11 9 9 11 11 10 10 11 11 10 9 8 8 7 8 10 11 10 8 6 5 6 6 7 11 15 14 14 12 8 7 7 7 9 9 8 6 5 5 5 5 5 5 5 5 5 5 5 4 4 4 4 4 4 4 4 4 4 4 4 4 4 4 4 4 4 4 5 nan
nan 7 7 7 7 7 6 6 7 7 7 8 9 10 10 7 5 5 6 7 7 6 6 7 7 7 7 7 7 5 4 6 8 9 9 9 8 9 9 9 9 10 9 9 9 10 9 7 7 9 11 10 9 7 6 5 6 6 8 13 15 15 16 15 12 10 8 8 9 9 8 6 5 5 5 5 5 5 5 5 5 5 5 4 4 4 4 4 4 4 4 4 4 4 4 4 4 4 4 4 4 4 nan
nan 8 8 7 6 6 6 6 8 9 8 7 8 8 8 7 7 7 7 7 7 6 7 8 9 8 7 6 7 6 5 6 7 7 7 7 7 8 8 8 8 8 8 9 10 11 10 9 7 8 9 10 9 8 7 7 7 6 6 9 11 13 14 15 17 16 13 9 8 9 9 8 7 6 5 5 5 5 6 5 5 5 5 4 4 4 4 4 4 4 4 4 4 4 4 4 4 4 4 4 4 4 nan
nan 8 8 7 7 7 6 7 8 9 8 7 7 7 8 8 8 8 9 8 8 7 8 9 9 9 8 8 8 7 7 7 7 7 6 7 7 7 7 8 7 7 7 8 9 10 10 10 8 8 8 9 9 9 8 8 8 6 6 7 8 9 10 11 13 15 18 16 12 10 9 9 8 7 6 6 6 6 6 6 6 5 5 5 5 4 5 4 4 4 4 4 4 4 4 4 4 4 5 5 4 4 nan
nan 8 7 7 8 7 7 8 9 8 7 7 7 7 9 10 9 9 9 9 8 8 8 8 8 8 8 8 9 9 8 7 8 7 7 7 7 6 7 7 7 7 7 7 7 8 9 10 9 9 8 8 10 10 9 9 9 7 5 6 7 7 7 8 9 10 15 19 18 15 11 9 9 8 7 6 6 6 6 6 6 6 6 5 5 5 5 5 5 5 5 4 4 4 4 4 4 5 5 5 5 5 nan
nan 8 8 7 7 7 9 10 9 7 6 7 7 7 9 11 10 9 9 9 8 7 8 9 8 7 6 7 8 7 7 8 9 8 7 8 7 6 7 8 8 8 8 7 6 6 7 9 9 9 8 8 9 10 10 10 9 7 6 6 7 6 6 7 7 6 8 13 17 20 16 11 9 8 7 7 6 6 7 7 7 7 7 6 6 6 6 6 6 6 6 5 5 4 4 5 5 5 6 6 5 5 nan
nan 8 8 7 7 8 11 11 8 5 5 7 6 6 8 9 9 9 9 8 6 6 8 10 9 8 7 6 7 6 6 7 8 8 7 7 7 6 7 8 8 8 9 8 7 6 7 7 8 9 8 8 8 9 10 10 9 8 7 6 7 6 6 6 6 5 5 7 11 16 20 15 11 9 8 7 7 7 7 8 9 9 8 7 7 7 6 6 6 7 6 6 5 5 5 5 6 6 6 6 6 5 nan
nan 8 8 8 8 9 11 10 7 6 6 7 6 6 7 8 9 10 9 7 6 6 7 9 10 10 9 6 7 7 6 5 6 8 8 6 6 6 6 7 7 8 9 9 8 8 7 7 7 8 7 8 7 7 8 10 10 9 8 8 8 8 7 6 6 6 6 6 7 10 18 19 15 11 9 9 8 8 8 8 9 9 9 8 8 7 7 7 7 7 6 6 6 6 6 6 7 7 7 7 6 5 nan
nan 8 8 8 8 10 11 10 7 6 6 7 7 6 6 6 8 10 9 8 7 6 6 8 10 11 11 8 7 7 7 5 5 6 8 7 6 6 6 6 7 7 9 10 9 8 8 8 7 7 7 7 7 7 7 8 10 10 10 10 10 10 9 8 6 7 7 6 6 7 12 19 19 16 11 10 9 8 8 8 8 9 9 9 8 8 7 7 7 7 6 6 6 6 6 7 7 7 7 7 6 6 nan
nan 8 8 8 8 9 10 9 7 6 6 7 7 7 5 6 8 9 10 10 9 6 5 7 9 11 11 10 8 8 8 7 6 6 7 7 7 6 6 7 7 7 8 9 9 9 9 9 9 9 8 8 8 7 7 7 8 9 10 10 11 12 11 8 6 6 7 6 6 6 7 12 17 20 18 15 14 12 10 8 8 8 9 9 8 8 7 7 7 7 7 6 6 6 6 7 7 8 8 7 6 6 nan
nan 8 8 8 9 10 9 7 6 6 7 8 8 7 5 5 7 7 8 9 10 8 6 6 7 9 10 12 11 10 9 9 9 8 7 7 7 7 6 7 7 7 7 8 9 10 9 9 10 10 10 9 9 8 9 7 7 7 9 9 11 12 12 9 7 7 6 7 7 7 7 7 10 15 20 19 19 19 17 12 9 8 8 8 8 8 7 7 7 7 7 6 6 6 7 7 8 8 8 7 6 6 nan
nan 7 7 8 9 9 9 6 6 6 7 8 8 7 6 5 6 6 6 7 9 9 8 6 6 6 8 11 12 13 11 11 11 10 8 7 8 8 6 7 8 8 7 8 8 9 9 9 10 10 9 8 8 8 9 9 8 7 7 9 10 12 12 10 9 8 7 7 7 8 9 7 6 7 11 14 16 18 19 17 13 10 8 8 8 8 8 7 7 7 7 7 6 6 7 7 8 8 8 7 6 6 nan
nan 7 8 9 9 8 8 7 6 6 7 8 8 7 6 6 6 6 6 7 7 8 8 8 6 4 4 6 8 11 13 12 12 11 8 7 8 9 9 9 9 9 9 8 8 7 7 9 10 10 10 9 8 8 8 10 9 7 6 8 10 12 12 12 11 9 8 7 8 8 8 9 8 6 6 9 9 11 15 19 18 14 11 9 9 9 8 8 8 7 7 7 7 7 7 7 8 8 7 7 6 6 nan
nan 6 8 10 9 8 8 7 6 6 7 7 7 8 7 6 7 7 7 7 8 8 9 9 7 6 4 2 2 6 10 11 12 12 9 5 7 8 11 11 10 10 10 10 9 9 8 9 9 10 10 9 9 9 8 9 9 8 8 8 8 10 11 12 12 10 9 8 9 7 6 7 8 7 6 7 7 9 10 15 19 20 16 13 11 10 9 9 9 8 7 7 7 7 7 7 7 7 7 6 6 6 nan
nan 5 8 11 10 7 7 8 7 6 6 6 7 8 10 9 8 7 7 8 8 8 10 10 10 9 7 2 1 3 7 9 10 11 9 7 6 6 8 10 10 10 11 12 12 12 11 10 9 9 9 9 9 9 9 9 9 8 8 8 8 8 10 11 12 12 12 11 9 8 6 6 7 7 7 7 8 8 8 10 14 19 21 19 16 14 13 11 10 9 8 8 7 7 7 8 7 7 7 6 6 6 nan
nan 6 8 10 10 8 8 8 6 6 7 7 8 10 11 10 10 8 7 6 7 7 8 8 10 12 11 7 4 4 7 7 7 7 7 9 9 9 7 8 9 11 11 12 13 14 14 10 9 8 8 8 9 9 8 8 8 7 8 8 8 8 8 10 11 12 14 13 11 9 8 6 6 7 8 8 8 8 8 8 9 12 16 20 21 21 21 19 15 12 10 9 8 8 8 8 7 7 6 6 6 7 nan
nan 8 8 8 9 8 9 9 6 6 8 8 8 9 11 10 8 7 6 7 6 6 5 4 5 10 13 12 9 8 8 8 6 6 7 8 11 13 10 7 7 9 11 12 12 12 13 11 10 9 8 7 7 8 8 8 8 7 7 8 8 7 7 8 10 12 13 14 13 12 10 7 6 6 7 7 7 7 7 7 8 9 10 13 15 17 17 19 19 16 11 10 9 8 8 8 7 6 6 6 7 7 nan
nan 8 8 7 8 8 10 10 7 8 7 6 6 7 7 8 7 6 7 8 7 6 4 4 4 5 8 11 10 10 10 9 7 8 9 7 8 10 9 7 7 7 9 10 11 9 10 12 13 13 11 9 8 8 8 8 8 8 8 8 8 8 8 8 9 9 10 12 12 13 12 10 8 7 7 7 6 5 5 6 6 7 8 9 10 10 11 10 10 11 10 9 9 8 8 8 7 6 6 6 7 7 nan
nan 8 8 7 7 8 9 10 8 8 7 7 6 5 5 6 7 7 7 8 8 7 7 7 5 4 4 7 7 8 9 10 7 8 8 6 5 5 7 9 10 8 7 9 9 8 6 10 13 15 15 15 13 11 11 10 9 9 10 8 8 8 9 9 9 9 8 9 10 11 12 12 11 10 10 8 7 6 6 5 4 5 7 8 9 10 12 13 11 8 9 9 8 9 9 8 7 6 6 7 7 7 nan
nan 10 7 5 6 7 9 10 8 8 7 7 7 7 7 7 6 6 7 8 9 9 9 8 6 6 5 5 6 6 7 10 8 7 6 6 7 6 7 10 11 11 8 7 8 9 7 9 10 12 12 13 15 15 15 14 11 11 11 9 8 8 8 8 8 8 8 8 9 10 9 10 11 12 11 9 9 8 8 7 5 4 5 7 8 8 9 12 15 14 15 15 13 10 8 7 7 6 6 7 7 7 nan
nan 10 6 5 7 8 10 10 8 7 7 8 9 9 9 7 6 7 8 10 10 9 9 8 8 6 6 6 7 6 6 8 8 8 7 7 8 7 6 5 6 8 9 9 10 9 7 7 9 11 8 7 11 13 14 15 14 13 11 10 8 7 6 7 7 7 8 9 10 10 10 10 11 12 9 8 8 9 8 8 7 6 5 6 7 8 9 11 14 17 19 22 21 15 9 6 7 6 6 7 7 7 nan
nan 9 7 9 9 8 9 9 8 7 7 7 8 9 9 9 9 9 10 11 11 9 6 6 7 6 6 9 10 8 5 5 8 10 9 6 6 7 9 5 3 3 7 9 10 10 7 7 9 11 8 7 8 8 8 10 12 13 13 12 11 9 7 7 7 8 8 9 9 10 10 11 12 12 10 9 8 8 8 8 8 7 7 7 7 9 11 12 13 14 15 19 23 23 13 8 7 6 6 7 7 7 nan
nan 9 10 10 9 7 7 8 8 7 6 7 8 9 9 10 10 9 9 9 8 6 6 7 7 5 6 10 11 11 8 5 7 10 10 8 6 7 10 10 8 7 7 8 9 10 10 10 9 9 9 8 8 7 7 7 10 12 13 13 13 13 11 9 8 8 8 8 8 8 9 10 11 11 11 10 10 9 9 8 7 8 8 7 7 8 10 11 9 8 10 11 15 23 19 10 7 5 6 6 6 6 nan
nan 10 10 9 9 8 6 6 7 7 7 7 7 8 9 9 9 8 9 8 7 7 7 6 6 5 6 8 10 11 9 6 4 6 9 9 9 8 8 9 10 12 11 10 9 9 9 7 8 6 8 7 9 8 8 8 10 11 11 11 12 13 13 11 9 7 7 7 7 7 8 9 10 10 11 11 10 11 11 9 8 8 8 8 8 8 9 9 7 4 5 6 6 13 15 10 8 6 6 6 6 5 nan
nan 9 9 10 10 8 6 6 7 7 8 7 7 8 9 9 8 8 9 9 9 8 6 5 5 6 7 6 8 9 9 8 5 4 6 8 9 9 8 5 5 7 8 10 11 9 7 5 7 7 7 6 6 7 7 8 8 8 8 9 10 12 13 12 11 9 8 8 7 6 6 8 9 9 9 10 10 11 12 12 10 10 9 8 8 9 9 11 10 8 6 5 4 6 10 9 8 7 6 6 5 5 nan
nan 6 7 9 9 8 7 7 7 7 8 7 6 7 8 8 8 9 10 12 12 10 7 5 5 6 7 7 7 7 8 8 8 7 6 6 8 10 10 7 6 5 5 6 7 8 8 9 9 7 4 5 5 6 5 6 7 8 7 7 8 11 13 13 12 11 10 10 9 8 7 6 8 8 7 7 8 8 11 12 11 11 9 8 8 9 10 12 13 14 14 13 11 8 9 9 8 7 6 5 5 5 nan
nan nan nan nan nan nan nan nan nan nan nan nan nan nan nan nan nan nan nan nan nan nan nan nan nan nan nan nan nan nan nan nan nan nan nan nan nan nan nan nan nan nan nan nan nan nan nan nan nan nan nan nan nan nan nan nan nan nan nan nan nan nan nan nan nan nan nan nan nan nan nan nan nan nan nan nan nan nan nan nan nan nan nan nan nan nan nan nan nan nan nan nan nan nan nan nan nan nan nan nan nan nan nan
CAPE
44 30 36 107 205 205 201 182 137 137 136 123 112 112 101 115 115 132 138 93 93 52 45 59 79 79 83 76 91 91 101 93 84 84 58 41 41 34 35 20 20 12 5 2 4 4 nan nan nan nan nan nan nan nan nan nan nan nan nan nan nan nan nan 13 7 7 3 3 4 4 5 6 2 2 0 nan nan nan nan nan nan nan 5 9 6 6 4 2 1 1 0 nan nan nan 2 4 4 3 3 3 3 3 3
47 38 45 107 205 205 218 194 157 157 145 132 114 114 106 117 117 155 162 116 116 73 51 44 51 51 56 58 78 78 90 88 69 69 43 30 30 31 27 18 18 8 1 0 2 2 nan nan nan nan nan nan nan nan nan nan nan nan nan nan nan nan nan 10 3 3 2 2 2 2 2 1 0 0 nan nan nan nan nan nan nan nan 4 6 4 4 1 0 0 0 nan nan nan nan 3 4 4 3 3 3 3 2 2
51 49 60 110 183 183 181 190 154 154 140 138 126 126 118 144 144 176 175 120 120 82 60 43 33 33 37 42 60 60 77 69 50 50 33 30 30 26 19 15 15 6 nan nan nan nan nan nan nan nan nan nan nan nan nan nan nan nan nan nan nan nan nan 8 2 2 1 0 1 1 1 0 nan nan nan nan nan nan nan nan nan 0 3 5 2 2 0 nan nan nan nan nan 2 2 5 4 4 3 3 2 2 2 3
59 61 76 101 135 135 137 161 149 149 132 141 147 147 157 179 179 196 155 113 113 87 69 45 24 24 28 31 44 44 55 61 37 37 29 27 27 18 14 10 10 4 nan nan nan nan nan nan nan nan nan nan nan nan nan nan nan nan nan nan nan nan 0 4 1 1 0 0 0 0 0 nan nan nan nan nan nan nan nan nan nan 0 3 3 0 0 nan nan nan nan nan nan 1 1 5 4 4 3 2 1 1 2 2
69 72 86 93 110 110 111 121 127 127 132 145 172 172 194 220 220 193 148 106 106 91 77 52 21 21 16 23 33 33 41 41 28 28 26 22 22 12 7 5 5 2 nan nan nan nan nan nan nan nan nan nan nan nan nan nan nan nan nan nan nan nan 7 3 1 1 0 nan nan nan nan nan nan nan nan nan nan nan nan nan nan 2 2 2 nan nan nan nan nan nan nan 0 nan nan 1 2 2 2 2 1 1 1 1
85 89 76 88 98 98 101 118 120 120 127 148 209 209 238 221 221 178 133 99 99 88 80 49 19 19 12 16 28 28 31 35 28 28 23 14 14 7 4 3 3 nan nan nan nan nan nan nan nan nan nan nan nan nan nan nan nan nan nan nan nan nan 8 2 1 1 nan nan nan nan nan nan nan nan nan nan nan nan nan nan nan 2 2 0 nan nan nan nan nan nan nan nan nan nan nan 0 0 0 0 0 0 0 0
93 87 76 82 92 92 104 122 125 125 130 167 223 223 238 205 205 165 127 106 106 95 81 52 18 18 9 6 19 19 25 28 27 27 19 8 8 2 1 0 0 nan nan nan nan nan nan nan nan nan nan nan nan nan nan nan nan nan nan nan nan 4 5 2 0 0 nan nan nan nan nan nan nan nan nan nan nan nan nan 0 0 3 1 0 nan nan nan nan nan nan nan nan nan nan nan nan nan nan nan nan nan nan nan
80 98 84 80 105 105 118 132 133 133 135 157 223 223 235 200 200 151 124 103 103 94 74 48 16 16 8 6 12 12 23 23 21 21 10 3 3 0 0 nan nan nan nan nan nan nan nan nan nan nan nan nan nan nan nan nan nan nan nan nan nan 0 3 1 nan nan nan nan nan nan nan nan nan nan nan nan nan nan nan 1 1 2 1 nan nan nan nan nan nan nan nan nan nan nan nan nan nan nan nan nan nan nan nan
70 100 96 84 111 111 149 149 140 140 123 156 208 208 189 168 168 136 119 113 113 91 66 34 13 13 6 4 7 7 14 22 16 16 5 1 1 nan nan nan nan nan nan nan nan nan nan nan nan nan nan nan nan nan nan nan nan nan nan nan nan nan 0 0 nan nan nan nan nan nan nan nan nan nan nan nan nan nan nan nan nan 1 0 nan nan nan nan nan nan nan nan nan nan nan nan nan nan nan nan nan nan nan nan
58 103 122 100 127 127 174 175 133 133 114 160 196 196 178 150 150 140 125 109 109 82 52 20 8 8 2 2 7 7 15 15 9 9 0 nan nan nan nan nan nan nan nan nan nan nan nan nan nan nan nan nan nan nan nan nan nan nan nan nan nan nan nan 0 nan nan nan nan nan nan nan nan nan nan nan nan nan nan nan nan nan 0 nan nan nan nan nan nan nan nan nan nan nan nan nan nan nan nan nan nan nan nan nan
51 105 139 123 118 118 136 168 131 131 108 144 196 196 198 171 171 135 121 83 83 63 33 6 2 2 1 2 7 7 14 13 5 5 nan nan nan nan nan nan nan nan nan nan nan nan nan nan nan nan nan nan nan nan nan nan nan nan nan nan nan nan nan nan nan nan nan nan nan nan nan nan nan nan nan nan nan nan nan nan nan nan nan nan nan nan nan nan nan nan nan nan nan nan nan nan nan nan nan nan nan nan nan
51 96 156 125 109 109 121 147 130 130 110 137 180 180 218 185 185 127 114 72 72 44 8 0 0 0 0 2 4 4 11 8 2 2 nan nan nan nan nan nan nan nan nan nan nan nan nan nan nan nan nan nan nan nan nan nan nan nan nan nan nan nan nan nan nan nan nan 0 nan nan nan nan nan nan nan nan nan nan nan nan nan nan nan nan nan nan nan nan nan nan nan nan nan nan nan nan nan nan nan nan nan nan nan
58 123 176 116 93 93 99 121 128 128 119 123 163 163 221 200 200 114 89 69 69 28 1 nan 0 0 0 1 4 4 4 2 0 0 nan nan nan nan nan nan nan nan nan nan nan nan nan nan nan nan nan nan nan nan nan nan nan nan nan nan nan nan nan nan nan nan 0 0 nan nan nan nan nan nan nan nan nan nan nan nan nan nan nan nan nan nan nan nan nan nan nan nan nan nan nan nan nan nan nan nan nan nan nan
84 125 130 119 92 92 86 101 118 118 126 105 144 144 219 195 195 115 94 61 61 29 3 0 0 0 0 1 1 1 1 0 nan nan nan nan nan nan nan nan nan nan nan nan nan nan nan nan nan nan nan nan nan nan nan nan nan nan nan nan nan nan nan nan nan nan 0 0 0 0 nan nan nan nan nan nan nan nan nan nan nan nan nan nan nan nan nan nan nan nan nan nan nan nan nan nan nan nan nan nan nan nan nan
86 86 91 84 91 91 94 93 110 110 116 107 130 130 183 182 182 127 105 72 72 42 10 1 0 0 0 0 0 0 nan nan nan nan nan nan nan nan nan nan nan nan nan nan nan nan nan nan nan nan nan nan nan nan nan nan nan nan nan nan nan nan nan nan nan nan nan nan nan nan nan nan nan nan nan nan nan nan nan nan nan nan nan nan nan nan nan nan nan nan nan nan nan nan nan nan nan nan nan nan nan nan nan
62 65 72 78 91 91 92 88 97 97 106 99 111 111 138 157 157 136 110 86 86 63 33 9 2 2 1 0 nan nan nan nan nan nan nan nan nan nan nan nan nan nan nan nan nan nan nan nan nan nan nan nan nan nan nan nan nan nan 0 nan nan nan nan nan nan nan nan nan nan nan nan nan nan nan nan nan nan nan nan nan nan nan nan nan nan nan nan nan nan nan nan nan nan nan nan nan nan nan nan nan nan nan nan
58 53 56 68 84 84 84 78 86 86 104 103 105 105 119 129 129 138 114 102 102 81 55 24 7 7 1 0 0 0 nan nan nan nan nan nan nan nan nan nan nan nan nan nan nan nan nan nan nan nan nan nan nan nan nan nan nan nan 1 0 0 1 nan nan nan nan nan nan nan nan nan nan nan nan nan nan nan nan nan nan nan nan nan nan nan nan nan nan nan nan nan nan nan nan nan nan nan nan nan nan nan nan nan
42 25 45 60 78 78 70 68 72 72 92 104 95 95 114 125 125 116 112 102 102 101 68 36 13 13 4 1 nan nan nan nan nan nan nan nan nan nan nan nan nan nan nan nan nan nan nan nan nan nan nan nan nan nan nan nan nan nan 0 3 3 3 2 0 nan nan nan nan nan nan nan nan nan nan nan nan nan nan nan nan nan nan nan nan nan nan nan nan nan nan nan nan nan nan nan nan nan nan nan nan nan nan nan
26 23 37 52 70 70 59 59 59 59 70 89 105 105 104 117 117 93 86 97 97 113 80 42 20 20 6 1 nan nan nan nan nan nan nan nan nan nan nan nan nan nan nan nan nan nan nan nan nan nan nan nan nan nan nan nan nan nan 2 6 6 7 5 4 0 0 nan nan nan nan nan nan nan nan nan nan nan nan nan nan nan nan nan nan nan nan nan nan nan nan nan nan nan nan nan nan nan nan nan nan nan nan nan
6 9 25 41 42 42 52 56 46 46 46 56 69 69 95 102 102 84 92 92 92 112 104 63 48 48 2 nan nan nan nan nan nan nan nan nan nan nan nan nan nan nan nan nan nan nan nan nan nan nan nan nan nan nan nan nan nan 14 8 12 12 13 10 7 4 4 1 nan nan nan nan nan nan nan nan nan nan nan nan nan nan nan nan nan nan nan nan nan nan nan nan nan nan nan nan nan nan nan nan nan nan nan nan
nan nan nan 11 19 19 nan 2 33 33 24 49 0 0 nan 20 20 54 82 42 42 103 126 52 nan nan nan nan nan nan nan nan nan nan nan nan nan nan nan nan nan nan nan nan nan nan nan nan nan nan nan nan nan nan nan nan nan 19 12 15 15 14 15 8 5 5 2 1 nan nan nan nan nan nan nan nan nan nan nan nan nan nan nan nan nan nan nan nan nan nan nan nan nan nan nan nan nan nan nan nan nan nan nan
nan nan nan nan 3 3 nan nan 1 1 nan 45 nan nan nan nan nan nan 5 nan nan nan nan nan nan nan nan nan nan nan nan nan nan nan nan nan nan nan nan nan nan nan nan nan nan nan nan nan nan nan nan nan nan nan nan 8 8 15 12 14 14 18 18 12 7 7 5 2 nan nan nan nan nan nan nan nan nan nan nan nan nan nan nan nan nan nan nan nan nan nan nan nan nan nan nan nan nan nan nan nan nan nan nan
nan nan nan nan 3 3 nan nan nan nan nan 12 nan nan nan nan nan nan nan nan nan nan nan nan nan nan nan nan nan nan nan nan nan nan nan nan nan nan nan nan nan nan nan nan nan nan nan nan nan nan nan nan nan nan nan 8 8 15 13 17 17 20 20 14 9 9 5 2 1 1 nan nan nan nan nan nan nan nan nan nan nan nan nan nan nan nan nan nan nan nan nan nan nan nan nan nan nan nan nan nan nan nan nan
nan nan nan nan 1 1 nan nan nan nan nan nan nan nan nan nan nan nan nan nan nan nan nan nan nan nan nan nan nan nan nan nan nan nan nan nan nan nan nan nan nan nan nan nan nan nan nan nan nan nan nan nan nan nan nan 11 11 20 16 19 19 20 20 16 12 12 7 5 2 2 1 nan nan nan nan nan nan nan nan nan nan nan nan nan nan nan nan nan nan nan nan nan nan nan nan nan nan nan nan nan nan nan nan
nan nan nan nan 0 0 nan nan nan nan nan nan nan nan nan nan nan nan nan nan nan nan nan nan nan nan nan nan nan nan nan nan nan nan nan nan nan nan nan nan nan nan nan nan nan nan nan nan nan nan nan nan nan nan nan 9 9 26 24 20 20 19 18 16 14 14 8 7 4 4 2 0 nan nan nan nan nan nan nan nan nan nan nan nan nan nan nan nan nan nan nan nan nan nan nan nan nan nan nan nan nan nan nan
nan nan nan nan nan nan nan nan nan nan nan nan nan nan nan nan nan nan nan nan nan nan nan nan nan nan nan nan nan nan nan nan nan nan nan nan nan nan nan nan nan nan nan nan nan nan nan nan nan nan nan nan nan nan nan 6 6 22 30 29 29 22 16 14 13 13 14 10 5 5 3 0 nan nan nan nan nan nan nan nan nan nan nan nan nan nan nan nan nan nan nan nan nan nan nan nan nan nan nan nan nan nan nan
nan nan nan nan nan nan nan nan nan nan nan nan nan nan nan nan nan nan nan nan nan nan nan nan nan nan nan nan nan nan nan nan nan nan nan nan nan nan nan nan nan nan nan nan nan nan nan nan nan nan nan nan nan nan nan nan nan 15 24 31 31 24 16 12 11 11 14 13 7 7 5 3 0 0 nan nan nan nan nan nan nan nan nan nan nan nan nan nan nan nan nan nan nan nan nan nan nan nan nan 0 0 0 0
nan nan nan nan nan nan nan nan nan nan nan nan nan nan nan nan nan nan nan nan nan nan nan nan nan nan nan nan nan nan nan nan nan nan nan nan nan nan nan nan nan nan nan nan nan nan nan nan nan nan nan nan nan nan nan nan nan 7 13 23 23 23 15 9 7 7 12 13 10 10 10 8 4 4 0 nan nan nan nan nan nan nan nan nan nan nan nan nan nan nan nan nan nan nan nan nan nan nan 0 1 1 2 1
nan nan nan nan nan nan nan nan nan nan nan nan nan nan nan nan nan nan nan nan nan nan nan nan nan nan nan nan nan nan nan nan nan nan nan nan nan nan nan nan nan nan nan nan nan nan nan nan nan nan nan nan nan nan nan nan nan 1 3 10 10 14 13 8 8 8 10 14 14 14 15 13 8 8 5 2 2 0 nan nan nan nan nan nan nan nan nan 0 0 0 0 0 0 0 0 0 0 1 2 2 2 3 2
nan nan nan nan nan nan nan nan nan nan nan nan nan nan nan nan nan nan nan nan nan nan nan nan nan nan nan nan nan nan nan nan nan nan nan nan nan nan nan nan nan nan nan nan nan nan nan nan nan nan nan nan nan nan nan nan nan nan nan 0 0 5 8 9 8 8 9 14 17 17 20 19 15 15 12 6 6 3 2 1 1 1 1 1 1 1 1 2 2 2 2 2 2 2 2 2 2 3 4 5 5 4 3
nan nan nan nan nan nan nan nan nan nan nan nan nan nan nan nan nan nan nan nan nan nan nan nan nan nan nan nan nan nan nan nan nan nan nan nan nan nan nan nan nan nan nan nan nan nan nan nan nan nan nan nan nan nan nan nan nan nan nan nan nan nan 3 10 10 10 10 12 18 18 21 24 21 21 19 14 14 10 7 5 5 4 4 4 4 4 5 5 6 6 5 5 4 4 4 5 5 6 7 7 7 6 5
nan nan nan nan nan nan nan nan nan nan nan nan nan nan nan nan nan nan nan nan nan nan nan nan nan nan nan nan nan nan nan nan nan nan nan nan nan nan nan nan nan nan nan nan nan nan nan nan nan nan nan nan nan nan nan nan nan nan nan nan nan nan 0 8 12 12 11 12 15 15 22 26 27 27 25 22 22 16 14 11 11 10 8 7 7 7 9 10 10 10 11 9 7 7 7 8 8 10 10 11 11 9 8
nan nan nan nan nan nan nan nan nan nan nan nan nan nan nan nan nan nan nan nan nan nan nan nan nan nan nan nan nan nan nan nan nan nan nan nan nan nan nan nan nan nan nan nan nan nan nan nan nan nan nan nan nan nan nan nan nan nan nan nan nan nan nan 4 10 10 11 11 13 13 18 24 28 28 31 30 30 29 24 19 19 18 16 13 13 13 14 15 16 16 16 14 12 12 11 12 12 14 15 16 16 15 11
nan nan nan nan nan nan nan nan nan nan nan nan nan nan nan nan nan nan nan nan nan nan nan nan nan nan nan nan nan nan nan nan nan nan nan nan nan nan nan nan nan nan nan nan nan nan nan nan nan nan nan nan nan nan nan nan nan nan nan nan nan nan nan 1 5 5 9 8 9 9 14 23 28 28 33 35 35 38 36 30 30 27 23 21 19 19 19 19 21 21 21 18 17 17 15 16 16 17 18 17 17 18 16
nan nan nan nan nan nan nan nan nan nan nan nan nan nan nan nan nan nan nan nan nan nan nan nan nan nan nan nan nan nan nan nan nan nan nan nan nan nan nan nan nan nan nan nan nan nan nan nan nan nan nan nan nan nan nan nan nan nan nan nan nan nan nan 0 2 2 4 6 6 6 10 16 27 27 33 39 39 42 44 41 41 35 31 29 27 27 26 26 25 25 26 25 22 22 20 20 20 21 23 22 22 21 20
nan nan nan nan nan nan nan nan nan nan nan nan nan nan nan nan nan nan nan nan nan nan nan nan nan nan nan nan nan nan nan nan nan nan nan nan nan nan nan nan nan nan nan nan nan nan nan nan nan nan nan nan nan nan nan nan nan nan nan nan nan nan nan nan 0 0 1 1 2 2 6 10 19 19 31 40 40 45 50 50 50 48 44 39 36 36 34 31 30 30 30 29 28 28 26 26 26 26 25 24 24 24 24
nan nan nan nan nan nan nan nan nan nan nan nan nan nan nan nan nan nan nan nan nan nan nan nan nan nan nan nan nan nan nan nan nan nan nan nan nan nan nan nan nan nan nan nan nan nan nan nan nan nan nan nan nan nan nan nan nan nan nan nan nan nan nan nan nan nan nan nan 0 0 2 6 14 14 25 39 39 49 54 57 57 58 57 53 46 46 42 40 37 37 34 36 34 34 33 30 30 29 27 26 26 25 25
nan nan nan nan nan nan nan nan nan nan nan nan nan nan nan nan nan nan nan nan nan nan nan nan nan nan nan nan nan nan nan nan nan nan nan nan nan nan nan nan nan nan nan nan nan nan nan nan nan nan nan nan nan nan nan nan nan nan nan nan nan nan nan nan nan nan nan nan nan nan nan 2 8 8 17 29 29 45 55 60 60 66 65 61 58 58 53 49 45 45 42 40 40 40 38 36 36 33 30 28 28 26 26
nan nan nan nan nan nan nan nan nan nan nan nan nan nan nan nan nan nan nan nan nan nan nan nan nan nan nan nan nan nan nan nan nan nan nan nan nan nan nan nan nan nan nan nan nan nan nan nan nan nan nan nan nan nan nan nan nan nan nan nan nan nan nan nan nan nan nan nan nan nan nan 0 3 3 10 20 20 34 47 60 60 63 69 70 70 70 68 60 55 55 50 46 44 44 44 38 38 34 31 29 29 28 26
nan nan nan nan nan nan nan nan nan nan nan nan nan nan nan nan nan nan nan nan nan nan nan nan nan nan nan nan nan nan nan nan nan nan nan nan nan nan nan nan nan nan nan nan nan nan nan nan nan nan nan nan nan nan nan nan nan nan nan nan nan nan nan nan nan nan nan nan nan nan nan nan nan nan 2 11 11 22 32 48 48 56 63 68 72 72 71 67 65 65 59 51 49 49 45 39 39 36 31 31 31 28 26
nan nan nan nan nan nan nan nan nan nan nan nan nan nan nan nan nan nan nan nan nan nan nan nan nan nan nan nan nan nan nan nan nan nan nan nan nan nan nan nan nan nan nan nan nan nan nan nan nan nan nan nan nan nan nan nan nan nan nan nan nan nan nan nan nan nan nan nan nan nan nan nan nan nan nan 3 3 10 21 33 33 38 45 55 61 61 62 65 68 68 61 56 51 51 47 40 40 37 31 30 30 27 27
nan nan nan nan nan nan nan nan nan nan nan nan nan nan nan nan nan nan nan nan nan nan nan nan nan nan nan nan nan nan nan nan nan nan nan nan nan nan nan nan nan nan nan nan nan nan nan nan nan nan nan nan nan nan nan nan nan nan nan nan nan nan nan nan nan nan nan nan nan nan nan nan nan nan nan nan nan 4 12 24 24 30 34 40 47 47 53 56 56 56 56 55 55 55 49 42 42 34 32 31 31 28 26
nan nan nan nan nan nan nan nan nan nan nan nan nan nan nan nan nan nan nan nan nan nan nan nan nan nan nan nan nan nan nan nan nan nan nan nan nan nan nan nan nan nan nan nan nan nan nan nan nan nan nan nan nan nan nan nan nan nan nan nan nan nan nan nan nan nan nan nan nan nan nan nan nan nan nan nan nan nan nan 3 3 9 13 15 22 22 27 39 48 48 53 54 54 54 49 41 41 35 32 32 32 27 23
nan nan nan nan nan nan nan nan nan nan nan nan nan nan nan nan nan nan nan nan nan nan nan nan nan nan nan nan nan nan nan nan nan nan nan nan nan nan nan nan nan nan nan nan nan nan nan nan nan nan nan nan nan nan nan nan nan nan nan nan nan nan nan nan nan nan nan nan nan nan nan nan nan nan nan nan nan nan nan nan nan 1 3 5 5 5 13 12 24 24 40 49 50 50 46 40 40 33 31 30 30 25 20
nan nan nan nan nan nan nan nan nan nan nan nan nan nan nan nan nan nan nan nan nan nan nan nan nan nan nan nan nan nan nan nan nan nan nan nan nan nan nan nan nan nan nan nan nan nan nan nan nan nan nan nan nan nan nan nan nan nan nan nan nan nan nan nan nan nan nan nan nan nan nan nan nan nan nan nan nan nan nan nan nan nan nan nan nan nan 2 1 5 5 19 33 39 39 39 34 34 28 27 26 26 23 19
nan nan nan nan nan nan nan nan nan nan nan nan nan nan nan nan nan nan nan nan nan nan nan nan nan nan nan nan nan nan nan nan nan nan nan nan nan nan nan nan nan nan nan nan nan nan nan nan nan nan nan nan nan nan nan nan nan nan nan nan nan nan nan nan nan nan nan nan nan nan nan nan nan nan nan nan nan nan nan nan nan nan nan nan nan nan nan nan nan nan 3 16 26 26 30 26 26 23 23 22 22 19 16
nan nan nan nan nan nan nan nan nan nan nan nan nan nan nan nan nan nan nan nan nan nan nan nan nan nan nan nan nan nan nan nan nan nan nan nan nan nan nan nan nan nan nan nan nan nan nan nan nan nan nan nan nan nan nan nan nan nan nan nan nan nan nan nan nan nan nan nan nan nan nan nan nan nan nan nan nan nan nan nan nan nan nan nan nan nan nan nan nan nan nan 3 13 13 15 18 18 20 19 16 16 16 13
nan nan nan nan nan nan nan nan nan nan nan nan nan nan nan nan nan nan nan nan nan nan nan nan nan nan nan nan nan nan nan nan nan nan nan nan nan nan nan nan nan nan nan nan nan nan nan nan nan nan nan nan nan nan nan nan nan nan nan nan nan nan nan nan nan nan nan nan nan nan nan nan nan nan nan nan nan nan nan nan nan nan nan nan nan nan nan nan nan nan nan nan 0 0 4 10 10 13 13 13 13 11 9
nan nan nan nan nan nan nan nan nan nan nan nan nan nan nan nan nan nan nan nan nan nan nan nan nan nan nan nan nan nan nan nan nan nan nan nan nan nan nan nan nan nan nan nan nan nan nan nan nan nan nan nan nan nan nan nan nan nan nan nan nan nan nan nan nan nan nan nan nan nan nan nan nan nan nan nan nan nan nan nan nan nan nan nan nan nan nan nan nan nan nan nan nan nan 0 4 4 7 8 8 8 7 4
nan nan nan nan nan nan nan nan nan nan nan nan nan nan nan nan nan nan nan nan nan nan nan nan nan nan nan nan nan nan nan nan nan nan nan nan nan nan nan nan nan nan nan nan nan nan nan nan nan nan nan nan nan nan nan nan nan nan nan nan nan nan nan nan nan nan nan nan nan nan nan nan nan nan nan nan nan nan nan nan nan nan nan nan nan nan nan nan nan nan nan nan nan nan nan 0 0 2 3 4 4 4 2
nan nan nan nan nan nan nan nan nan nan nan nan nan nan nan nan nan nan nan nan nan nan nan nan nan nan nan nan nan nan nan nan nan nan nan nan nan nan nan nan nan nan nan nan nan nan nan nan nan nan nan nan nan nan nan nan nan nan nan nan nan nan nan nan nan nan nan nan nan nan nan nan nan nan nan nan nan nan nan nan nan nan nan nan nan nan nan nan nan nan nan nan nan nan nan nan nan 0 1 2 2 2 2
nan nan nan nan nan nan nan nan nan nan nan nan nan nan nan nan nan nan nan nan nan nan nan nan nan nan nan nan nan nan nan nan nan nan nan nan nan nan nan nan nan nan nan nan nan nan nan nan nan nan nan nan nan nan nan nan nan nan nan nan nan nan nan nan nan nan nan nan nan nan nan nan nan nan nan nan nan nan nan nan nan nan nan nan nan nan nan nan nan nan nan nan nan nan nan nan nan nan nan 0 0 1 1
nan nan nan nan nan nan nan nan nan nan nan nan nan nan nan nan nan nan nan nan nan nan nan nan nan nan nan nan nan nan nan nan nan nan nan nan nan nan nan nan nan nan nan nan nan nan nan nan nan nan nan nan nan nan nan nan nan nan nan nan nan nan nan nan nan nan nan nan nan nan nan nan nan nan nan nan nan nan nan nan nan nan nan nan nan nan nan nan nan nan nan nan nan nan nan nan nan nan nan nan nan 0 0
nan nan nan nan nan nan nan nan nan nan nan nan nan nan nan nan nan nan nan nan nan nan nan nan nan nan nan nan nan nan nan nan nan nan nan nan nan nan nan nan nan nan nan nan nan nan nan nan nan nan nan nan nan nan nan nan nan nan nan nan nan nan nan nan nan nan nan nan nan nan nan nan nan nan nan nan nan nan nan nan nan nan nan nan nan nan nan nan nan nan nan nan nan nan nan nan nan nan nan nan nan nan nan
nan nan nan nan nan nan nan nan nan nan nan nan nan nan nan nan nan nan nan nan nan nan nan nan nan nan nan nan nan nan nan nan nan nan nan nan nan nan nan nan nan nan nan nan nan nan nan nan nan nan nan nan nan nan nan nan nan nan nan nan nan nan nan nan nan nan nan nan nan nan nan nan nan nan nan nan nan nan nan nan nan nan nan nan nan nan nan nan nan nan nan nan nan nan nan nan nan nan nan nan nan nan nan
nan nan nan nan nan nan nan nan nan nan nan nan nan nan nan nan nan nan nan nan nan nan nan nan nan nan nan nan nan nan nan nan nan nan nan nan nan nan nan nan nan nan nan nan nan nan nan nan nan nan nan nan nan nan nan nan nan nan nan nan nan nan nan nan nan nan nan nan nan nan nan nan nan nan nan nan nan nan nan nan nan nan nan nan nan nan nan nan nan nan nan nan nan nan nan nan nan nan nan nan nan nan nan
nan nan nan nan nan nan nan nan nan nan nan nan nan nan nan nan nan nan nan nan nan nan nan nan nan nan nan nan nan nan nan nan nan nan nan nan nan nan nan nan nan nan nan nan nan nan nan nan nan nan nan nan nan nan nan nan nan nan nan nan nan nan nan nan nan nan nan nan nan nan nan nan nan nan nan nan nan nan nan nan nan nan nan nan nan nan nan nan nan nan nan nan nan nan nan nan nan nan nan nan nan nan nan
nan nan nan nan nan nan nan nan nan nan nan nan nan nan nan nan nan nan nan nan nan nan nan nan nan nan nan nan nan nan nan nan nan nan nan nan nan nan nan nan nan nan nan nan nan nan nan nan nan nan nan nan nan nan nan nan nan nan nan nan nan nan nan nan nan nan nan nan nan nan nan nan nan nan nan nan nan nan nan nan nan nan nan nan nan nan nan nan nan nan nan nan nan nan nan nan nan nan nan nan nan nan nan
nan nan nan nan nan nan nan nan nan nan nan nan nan nan nan nan nan nan nan nan nan nan nan nan nan nan nan nan nan nan nan nan nan nan nan nan nan nan nan nan nan nan nan nan nan nan nan nan nan nan nan nan nan nan nan nan nan nan nan nan nan nan nan nan nan nan nan nan nan nan nan nan nan nan nan nan nan nan nan nan nan nan nan nan nan nan nan nan nan nan nan nan nan nan nan nan nan nan nan nan nan nan nan
nan nan nan nan nan nan nan nan nan nan nan nan nan nan nan nan nan nan nan nan nan nan nan nan nan nan nan nan nan nan nan nan nan nan nan nan nan nan nan nan nan nan nan nan nan nan nan nan nan nan nan nan nan nan nan nan nan nan nan nan nan nan nan nan nan nan nan nan nan nan nan nan nan nan nan nan nan nan nan nan nan nan nan nan nan nan nan nan nan nan nan nan nan nan nan nan nan nan nan nan nan nan nan
nan nan nan nan nan nan nan nan nan nan nan nan nan nan nan nan nan nan nan nan nan nan nan nan nan nan nan nan nan nan nan nan nan nan nan nan nan nan nan nan nan nan nan nan nan nan nan nan nan nan nan nan nan nan nan nan nan nan nan nan nan nan nan nan nan nan nan nan nan nan nan nan nan nan nan nan nan nan nan nan nan nan nan nan nan nan nan nan nan nan nan nan nan nan nan nan nan nan nan nan nan nan nan